Location: Clifton Park
(41.4873°N, 81.8024°W)
Time: 18:30:06
(UTC+00:00)

ISS - Pass Details

Date: 21 January 2020
Orbit: 415 x 422 km, 51.6° (Epoch: 26 February)

Event Time Altitude Azimuth Distance (km) Brightness Sun altitude
Rises 01:02:46 0° 250° (WSW) 2,370 1.1 -28.7°
Reaches altitude 10° 01:04:56 10° 257° (WSW) 1,507 0.0 -29.1°
Enters shadow 01:05:56 18° 264° (W) 1,132 -0.8 -29.3°
